Location: Buckenweiler
(49.0667°N, 10.2500°E)
Time: 20:38:12
(UTC+00:00)

CZ-4C R/B - Pass Details

Date: 18 January 2026
Orbit: 482 x 1496 km, 63.4° (Epoch: 15 February)

Event Time Altitude Azimuth Distance (km) Brightness Sun altitude
Exits shadow 04:15:24 21° 349° (NNW) 2,007 4.0 -27.4°
Maximum altitude 04:17:25 24° 16° (NNE) 1,953 4.2 -27.0°
Drops below altitude 10° 04:23:11 10° 67° (ENE) 3,103 6.0 -26.1°
Sets 04:26:56 0° 81° (E) 4,242 7.1 -25.5°
